Weather History for Mobile, AL

Change the Weather History Date:

Friday, March 2, 2012

  Actual Average Record
Temperature  
Mean Temperature 74 °F 57 °F  
Max Temperature 79 °F 68 °F 82 °F (2006)
Min Temperature 69 °F 47 °F 23 °F (1980)
Degree Days  
Heating Degree Days 0 8  
Month to date heating degree days 0 17  
Since 1 July heating degree days 1079 1459  
Cooling Degree Days 9 1  
Month to date cooling degree days 19 2  
Year to date cooling degree days 64 18  
Growing Degree Days 24 (Base 50)    
Moisture  
Dew Point 67 °F    
Average Humidity 81    
Maximum Humidity 90    
Minimum Humidity 71    
Precipitation  
Precipitation T in 0.21 in 2.28 in (1948)
Month to date precipitation T 0.40  
Year to date precipitation 9.49 11.17  
Snow  
Snow 0.00 in 0.00 in - ()
Month to date snowfall 0.0 0.0  
Since 1 July snowfall 0.0 0.1  
Snow Depth 0.00 in    
Sea Level Pressure  
Sea Level Pressure 29.85 in    
Wind  
Wind Speed 14 mph (SSW)    
Max Wind Speed 24 mph    
Max Gust Speed 31 mph    
Visibility 8 miles    
Events      
T = Trace of Precipitation, MM = Missing Value Source: NWS Daily Summary

Daily Weather History Graph

Daily Weather History Graph

Search for Another Location

Airport:

Trip Planner

Search our weather history database for the weather conditions in past years. The results will help you decide how hot, cold, wet, or windy it might be!

Date:

Astronomy

Mar. 02, 2012 Rise Set
Actual Time 6:17 AM CST 5:52 PM CST
Civil Twilight 5:53 AM CST 6:16 PM CST
Nautical Twilight 5:25 AM CST 6:44 PM CST
Astronomical Twilight 4:57 AM CST 7:12 PM CST
Moon 12:22 PM CST (3/2) 1:49 AM CST (3/2)
Length of Visible Light 12h 23m
Length of Day
11h 35m
Waxing Gibbous, 66% of the Moon is Illuminated
Mar 2
Waxing Gibbous
Mar 8
Full
Mar 14
Last Quarter
Mar 22
New
Mar 30
First Quarter

Hourly Weather History & Observations

Time (CST) Temp. Dew Point Humidity Pressure Visibility Wind Dir Wind Speed Gust Speed Precip Events Conditions
12:06 AM 69.8 °F 66.2 °F 88% 29.91 in 8.0 mi South 10.4 mph - N/A   Overcast
12:25 AM 69.8 °F 66.2 °F 88% 29.92 in 8.0 mi South 11.5 mph - N/A   Overcast
12:56 AM 69.1 °F 66.0 °F 90% 29.90 in 5.0 mi SSW 11.5 mph - N/A   Overcast
1:56 AM 69.1 °F 66.9 °F 93% 29.88 in 5.0 mi South 9.2 mph - N/A   Overcast
2:24 AM 69.8 °F 66.2 °F 88% 29.89 in 4.0 mi SSW 9.2 mph - N/A   Overcast
2:56 AM 69.1 °F 66.9 °F 93% 29.87 in 4.0 mi SSW 9.2 mph - N/A   Overcast
3:21 AM 69.8 °F 66.2 °F 88% 29.87 in 6.0 mi SSW 11.5 mph - N/A   Overcast
3:56 AM 69.1 °F 66.9 °F 93% 29.87 in 6.0 mi SSW 11.5 mph - N/A   Overcast
4:56 AM 69.1 °F 66.9 °F 93% 29.88 in 5.0 mi SSW 8.1 mph - N/A   Overcast
5:56 AM 70.0 °F 66.9 °F 90% 29.89 in 7.0 mi SSW 9.2 mph - N/A   Overcast
6:56 AM 70.0 °F 66.9 °F 90% 29.90 in 7.0 mi SW 6.9 mph - N/A   Overcast
7:56 AM 71.1 °F 66.0 °F 84% 29.90 in 10.0 mi SSW 13.8 mph - N/A   Overcast
8:50 AM 71.6 °F 66.2 °F 83% 29.92 in 10.0 mi SSW 11.5 mph 18.4 mph N/A   Overcast
8:56 AM 73.0 °F 66.9 °F 81% 29.92 in 10.0 mi South 12.7 mph - N/A   Overcast
9:56 AM 73.0 °F 68.0 °F 84% 29.93 in 10.0 mi SSW 15.0 mph 21.9 mph N/A   Overcast
10:56 AM 75.9 °F 68.0 °F 76% 29.91 in 10.0 mi SSW 18.4 mph 23.0 mph N/A   Overcast
11:21 AM 78.8 °F 66.2 °F 65% 29.90 in 10.0 mi SSW 13.8 mph 26.5 mph N/A   Mostly Cloudy
11:56 AM 78.1 °F 68.0 °F 71% 29.88 in 10.0 mi SSW 18.4 mph 28.8 mph N/A   Overcast
12:56 PM 78.1 °F 68.0 °F 71% 29.86 in 10.0 mi South 18.4 mph 28.8 mph N/A   Overcast
1:56 PM 77.0 °F 68.0 °F 74% 29.84 in 10.0 mi SSW 16.1 mph 28.8 mph N/A   Overcast
2:56 PM 77.0 °F 68.0 °F 74% 29.81 in 10.0 mi SSW 17.3 mph 25.3 mph N/A   Mostly Cloudy
3:56 PM 73.9 °F 68.0 °F 82% 29.81 in 8.0 mi SSW 19.6 mph 26.5 mph N/A   Overcast
4:56 PM 73.9 °F 68.0 °F 82% 29.81 in 8.0 mi SSW 15.0 mph 23.0 mph 0.00 in   Mostly Cloudy
5:15 PM 73.4 °F 66.2 °F 78% 29.81 in 9.0 mi SSW 15.0 mph 23.0 mph N/A   Mostly Cloudy
5:53 PM 73.4 °F 66.2 °F 78% 29.81 in 9.0 mi SSW 12.7 mph - N/A   Mostly Cloudy
5:56 PM 73.0 °F 66.9 °F 81% 29.81 in 9.0 mi SSW 13.8 mph - N/A   Mostly Cloudy
6:53 PM 73.4 °F 66.2 °F 78% 29.81 in 10.0 mi SSW 16.1 mph 25.3 mph N/A   Overcast
6:56 PM 73.0 °F 66.9 °F 81% 29.81 in 10.0 mi SSW 13.8 mph 21.9 mph N/A   Overcast
7:56 PM 73.0 °F 66.9 °F 81% 29.81 in 8.0 mi SW 13.8 mph 20.7 mph N/A   Overcast
8:56 PM 72.0 °F 66.9 °F 84% 29.80 in 10.0 mi SSW 16.1 mph 23.0 mph N/A   Overcast
9:56 PM 71.1 °F 66.9 °F 87% 29.79 in 10.0 mi SSW 9.2 mph 19.6 mph N/A   Overcast
10:56 PM 72.0 °F 66.9 °F 84% 29.78 in 10.0 mi SSW 11.5 mph - N/A   Overcast
11:18 PM 71.6 °F 66.2 °F 83% 29.78 in 10.0 mi SSW 11.5 mph - N/A   Mostly Cloudy
11:56 PM 71.1 °F 66.9 °F 87% 29.78 in 10.0 mi SW 15.0 mph 21.9 mph N/A   Overcast